TimeEDT,TemperatureF,Dew PointF,Humidity,Sea Level PressureIn,VisibilityMPH,Wind Direction,Wind SpeedMPH,Gust SpeedMPH,PrecipitationIn,Events,Conditions,WindDirDegrees,DateUTC
1:54 AM,50.0,45.0,83,30.17,10.0,North,8.1,-,N/A,,Overcast,360,2012-10-09 05:54:00
2:54 AM,51.1,45.0,80,30.14,10.0,NNE,11.5,-,N/A,,Overcast,20,2012-10-09 06:54:00
3:18 AM,51.8,44.6,76,30.16,10.0,North,5.8,-,N/A,,Overcast,360,2012-10-09 07:18:00
3:54 AM,51.1,45.0,80,30.15,10.0,North,6.9,-,N/A,,Overcast,10,2012-10-09 07:54:00
4:43 AM,51.8,46.4,82,30.15,9.0,North,6.9,-,N/A,,Overcast,350,2012-10-09 08:43:00
5:54 AM,50.0,48.0,93,30.15,4.0,North,8.1,16.1,0.01,Rain,Light Rain,10,2012-10-09 09:54:00
6:37 AM,50.0,48.2,94,30.15,4.0,NNE,10.4,-,0.00,Rain,Light Rain,20,2012-10-09 10:37:00
6:54 AM,50.0,48.0,93,30.15,4.0,NNE,8.1,-,0.00,,Overcast,20,2012-10-09 10:54:00
7:54 AM,50.0,48.0,93,30.15,6.0,NNE,10.4,-,N/A,,Overcast,20,2012-10-09 11:54:00
8:54 AM,52.0,48.9,89,30.16,8.0,North,10.4,-,N/A,,Overcast,10,2012-10-09 12:54:00
9:54 AM,54.0,50.0,86,30.17,10.0,NNE,11.5,-,N/A,,Overcast,30,2012-10-09 13:54:00
10:54 AM,55.9,51.1,84,30.16,10.0,NNE,10.4,-,N/A,,Overcast,20,2012-10-09 14:54:00
11:54 AM,59.0,52.0,78,30.14,10.0,NNE,11.5,-,N/A,,Overcast,30,2012-10-09 15:54:00
12:54 PM,59.0,53.1,81,30.12,10.0,NE,6.9,-,N/A,,Overcast,40,2012-10-09 16:54:00
1:54 PM,59.0,54.0,83,30.10,10.0,NNE,6.9,-,N/A,,Overcast,30,2012-10-09 17:54:00
2:54 PM,60.1,55.0,83,30.09,10.0,NNE,6.9,-,N/A,,Overcast,20,2012-10-09 18:54:00
3:54 PM,60.1,55.0,83,30.09,10.0,NNE,6.9,-,N/A,,Overcast,20,2012-10-09 19:54:00
4:54 PM,59.0,55.9,90,30.09,9.0,NNE,6.9,-,N/A,,Overcast,30,2012-10-09 20:54:00
5:54 PM,60.1,55.9,86,30.08,10.0,NNE,6.9,-,N/A,,Overcast,30,2012-10-09 21:54:00
6:52 PM,59.0,55.4,88,30.08,7.0,North,5.8,-,N/A,,Overcast,350,2012-10-09 22:52:00
6:54 PM,59.0,57.0,93,30.08,7.0,North,5.8,-,N/A,,Overcast,10,2012-10-09 22:54:00
7:28 PM,57.2,55.4,94,30.08,10.0,North,5.8,-,N/A,,Overcast,10,2012-10-09 23:28:00
7:54 PM,57.9,55.9,93,30.08,10.0,North,5.8,-,N/A,,Overcast,360,2012-10-09 23:54:00
8:54 PM,57.9,55.9,93,30.07,10.0,NNE,8.1,-,0.00,,Overcast,20,2012-10-10 00:54:00
9:54 PM,57.9,55.9,93,30.07,10.0,NE,6.9,-,N/A,,Overcast,40,2012-10-10 01:54:00
10:54 PM,57.9,55.9,93,30.06,10.0,NNE,5.8,-,N/A,,Overcast,20,2012-10-10 02:54:00
11:54 PM,57.9,55.9,93,30.04,10.0,NNE,6.9,-,N/A,,Overcast,20,2012-10-10 03:54:00